Regional Weather Roundup
Issued by NWS

Home | Current Version | Previous Version | Graphics & Text | Print | Product List | Glossary On
Versions: 1 2 3 4 5 6 7 8 9 10 11 12 13 14 15 16 17 18 19 20 21 22 23 24 25 26 27 28 29 30 31 32 33 34 35 36 37 38 39 40 41 42 43 44 45 46 47 48 49 50
000
ASUS44 KMEG 180010
RWRTN
TENNESSEE HOURLY STATE WEATHER ROUNDUP
NATIONAL WEATHER SERVICE MEMPHIS TN
700 PM CDT THU APR 17 2014

TNZ002-004-019-021-049-052-054-088>092-180100-
WEST TENNESSEE

CITY           SKY/WX    TMP DP  RH WIND       PRES   REMARKS
MEMPHIS INTL   MOCLDY    68  39  34 SE7       30.20R
NWS MEMPHIS      N/A     68 N/A N/A MISG        N/A
JACKSON        PTCLDY    66  37  34 E3        30.21S
DYERSBURG      PTCLDY    66  37  34 E3        30.22S
PARIS          CLEAR     63  37  37 E3        30.22
SAVANNAH       PTCLDY    64  41  43 CALM      30.22
$$

TNZ008-025-027-028-033-062-065-066-180100-
NORTH MIDDLE TENNESSEE

CITY           SKY/WX    TMP DP  RH WIND       PRES   REMARKS
NASHVILLE      MOCLDY    63  37  38 S5        30.26S
DICKSON        PTCLDY    64  32  29 SE5       30.24F
PORTLAND       PTCLDY    63  34  34 SE6       30.25S
CLARKSVILLE    CLEAR     63  37  38 SE8       30.23F
SMYRNA         PTCLDY    65  37  35 S3        30.26F
MURFREESBORO   PTCLDY    66  36  33 S3        30.25S
LIVINGSTON     CLEAR     62  27  26 S5        30.28R
GALLATIN       PTCLDY    66  35  31 SE3       30.27S
CROSSVILLE     CLEAR     60  30  32 CALM      30.30S
$$

TNZ061-075-076-078-094-096-097-180100-
SOUTH MIDDLE TENNESSEE

CITY           SKY/WX    TMP DP  RH WIND       PRES   REMARKS
LEWISBURG      PTCLDY    63  44  49 S5        30.25S
FAYETTEVILLE   CLOUDY    61  41  47 SE5       30.26S
SHELBYVILLE    PTCLDY    63  45  51 S5        30.27R
$$

TNZ017-018-042-046-047-180100-
NORTHEAST TENNESSEE

CITY           SKY/WX    TMP DP  RH WIND       PRES   REMARKS
TRI CITIES     PTCLDY    63  19  18 SE9       30.30S
$$

TNZ012-013-036-069-073-074-180100-
CENTRAL EAST TENNESSEE

CITY           SKY/WX    TMP DP  RH WIND       PRES   REMARKS
KNOXVILLE      MOCLDY    65  31  28 CALM      30.28R
OAK RIDGE      CLEAR     65  31  28 CALM      30.29S
$$

TNZ083-085-099-180100-
SOUTHEAST TENNESSEE

CITY           SKY/WX    TMP DP  RH WIND       PRES   REMARKS
CHATTANOOGA    MOCLDY    65  39  38 S5        30.29R
$$

SKY/WX REPORTED AS FAIR MEANS FEW OR NO CLOUDS BELOW
12 THOUSAND FEET.




USA.gov is the U.S. government's official web portal to all federal, state and local government web resources and services.